RH
31 29 27 25 22 24 26 28 29 30 30 30 30 28 37 50 65 70 72 72 68 68 92 87 79 76 79 81 86 83 78 81 84 82 84 82 83 83 88 93 90 79 72
32 31 29 28 27 27 30 30 30 31 33 33 33 32 30 40 55 71 75 73 70 65 82 93 90 90 90 84 79 81 83 86 89 84 74 80 91 84 89 95 90 85 86
36 34 34 34 33 32 33 34 35 36 36 35 34 34 34 31 52 67 74 74 72 70 67 68 76 85 87 89 84 85 84 85 88 90 81 72 72 75 79 80 84 81 84
46 42 40 40 39 39 39 39 40 40 42 40 38 36 34 34 36 60 72 73 71 70 67 63 56 52 48 69 71 77 82 84 84 84 86 92 81 75 75 75 80 80 84
57 50 48 47 47 47 45 46 45 46 45 43 41 36 37 36 37 58 72 72 72 71 65 63 54 44 40 43 64 65 70 73 74 75 76 80 89 78 76 75 74 80 84
62 59 56 56 52 50 51 51 51 49 49 48 43 39 38 39 37 48 70 72 72 72 69 65 55 48 50 48 60 61 62 66 69 75 76 76 78 89 75 77 76 75 71
64 62 61 60 58 56 58 59 57 56 53 53 50 42 37 46 47 56 62 66 72 75 73 70 61 51 53 52 50 51 62 65 68 72 75 77 79 78 77 72 76 76 77
62 63 65 65 65 65 65 64 64 63 60 59 64 65 71 46 43 40 43 43 62 67 57 54 55 54 52 53 53 50 48 66 68 68 70 71 76 79 76 73 77 76 77
63 67 69 70 71 72 70 70 70 70 67 66 67 60 69 70 67 47 46 48 49 49 50 53 51 51 51 51 51 50 47 46 62 70 72 71 71 76 76 74 72 73 76
67 69 71 73 75 75 75 76 77 77 77 77 72 62 69 64 73 80 53 52 51 55 52 50 50 48 46 51 53 52 50 48 66 75 75 77 72 71 72 72 68 70 71
69 72 74 76 78 78 77 79 79 81 82 83 84 82 80 74 72 78 90 77 73 67 65 63 56 49 51 56 55 55 53 54 77 75 72 77 76 72 70 70 70 67 74
75 76 78 78 74 64 61 60 63 67 72 76 81 85 89 88 84 82 93 86 87 77 72 68 63 56 55 55 57 56 53 46 68 81 76 73 75 75 74 72 72 72 71
77 74 68 53 40 32 30 31 32 33 36 42 47 54 65 70 82 91 95 93 96 78 73 66 61 57 61 58 57 56 54 51 62 74 82 73 70 71 74 76 76 74 72
70 48 29 27 25 25 26 27 28 31 34 35 38 42 45 45 51 58 78 93 88 83 64 66 59 63 62 61 67 58 59 57 61 76 78 85 81 77 75 75 76 78 80
34 27 24 22 20 20 20 21 22 25 27 32 38 43 45 42 46 53 59 66 91 97 74 67 65 67 64 66 65 63 65 64 65 82 83 81 83 88 85 80 77 76 79
26 23 21 19 18 18 17 18 20 23 25 26 34 39 37 40 46 50 55 62 73 91 96 67 72 74 74 76 77 77 72 75 73 72 81 82 83 83 83 84 82 79 78
22 21 21 20 18 18 18 18 20 23 25 29 34 41 43 50 50 55 58 62 74 82 96 85 82 80 79 79 77 75 74 74 71 72 87 88 86 82 81 81 81 84 83
21 20 20 20 20 18 18 18 20 23 27 30 33 45 47 56 55 59 68 72 79 78 92 92 81 78 79 76 73 73 71 72 70 69 75 78 81 83 82 80 79 82 82
21 20 21 21 20 19 20 22 27 28 29 31 39 48 51 54 54 61 69 82 87 89 88 89 83 76 71 71 69 69 70 69 68 67 69 68 68 70 72 75 76 75 74
20 21 22 21 22 24 26 29 27 30 30 37 40 46 48 51 56 63 80 89 90 89 83 83 84 80 69 67 67 73 74 68 67 66 68 69 77 76 76 75 75 78 80
21 23 35 40 30 27 26 25 26 32 41 45 40 42 45 49 57 72 86 88 90 90 88 87 87 88 82 83 85 79 84 85 78 77 77 78 76 74 70 71 72 69 72
23 37 40 40 38 28 23 23 32 47 52 53 48 41 44 48 54 59 81 83 88 89 91 93 93 81 74 77 78 79 92 99 87 78 75 80 81 85 84 83 79 71 90
34 40 39 34 29 26 19 22 29 49 54 48 49 49 46 48 56 63 64 70 74 74 83 79 87 88 86 88 92 96 93 97 96 86 87 91 91 88 83 83 80 87 90
42 43 36 27 28 24 23 28 33 52 53 49 46 45 52 54 56 66 77 89 81 79 77 73 84 89 92 93 92 100 100 100 100 96 99 96 88 87 90 82 80 87 89
46 40 30 29 29 28 26 31 39 54 56 48 43 45 55 61 62 78 91 90 91 87 70 72 88 87 86 86 86 91 100 100 91 79 77 94 94 99 96 89 79 76 88
35 30 30 29 32 34 34 37 41 59 65 57 50 47 51 67 82 84 82 82 85 79 88 88 89 88 85 78 84 95 100 99 92 86 86 99 98 99 92 78 82 83 77
Wind_Speed
4 5 7 8 10 11 11 12 12 13 13 11 10 9 7 6 4 3 2 4 6 4 2 3 4 4 4 5 5 6 6 6 7 6 7 7 7 7 6 8 8 9 10
4 5 6 7 9 10 11 12 13 13 13 13 11 11 8 7 5 4 4 5 6 4 3 4 4 4 4 4 4 4 5 6 7 7 5 5 3 5 6 4 2 3 5
4 5 6 7 8 9 10 11 12 12 13 13 12 12 11 7 6 5 5 4 7 5 5 3 3 4 5 4 4 4 6 7 7 8 6 6 5 6 4 3 4 4 5
5 6 7 7 8 9 11 12 14 14 16 15 17 15 10 6 6 6 6 5 5 6 6 6 7 7 7 6 6 6 7 7 8 8 8 9 6 6 8 6 3 4 4
6 7 8 8 9 10 11 12 13 14 17 17 20 15 14 8 6 5 5 7 6 6 6 7 9 10 8 8 8 8 9 8 9 9 9 9 10 7 7 9 9 9 8
7 8 8 9 9 9 10 11 12 12 12 16 17 15 6 6 4 3 4 6 7 7 8 8 9 11 11 11 10 11 11 10 11 10 9 9 9 9 8 9 9 10 11
8 9 8 9 9 9 10 10 11 12 10 17 12 14 6 6 6 4 5 8 8 9 10 11 11 12 13 14 14 13 13 11 11 10 9 9 9 8 8 10 8 8 8
9 8 8 9 9 9 9 9 9 9 7 11 8 3 4 3 3 8 9 6 2 5 8 10 11 14 17 18 17 16 15 13 12 12 11 10 10 9 8 9 8 8 7
8 8 8 8 8 9 9 9 9 9 8 7 10 2 2 2 7 5 9 7 10 10 8 13 19 20 17 17 16 17 17 16 14 13 12 11 10 10 10 10 10 10 9
6 7 7 6 6 7 8 8 8 8 9 10 6 3 6 5 1 4 6 14 16 20 23 21 18 19 20 17 17 16 16 17 15 14 14 12 12 11 11 12 13 13 12
7 6 5 5 6 7 7 8 8 8 7 8 7 7 7 6 7 5 4 6 27 20 24 18 23 17 14 12 13 11 13 14 16 16 15 14 13 13 13 12 13 14 13
4 3 3 3 5 5 6 6 6 6 7 7 7 7 6 4 4 5 3 10 14 18 21 21 20 13 12 14 9 13 19 18 16 17 17 15 15 15 15 15 14 15 15
4 2 1 2 3 4 6 6 7 6 7 7 8 7 7 8 10 12 12 8 5 13 11 18 14 12 12 10 17 22 26 21 19 18 17 19 18 17 17 17 17 17 17
3 1 1 2 3 3 4 5 6 7 7 7 8 8 9 9 10 10 9 7 5 4 15 6 17 6 6 21 22 25 23 23 21 19 18 18 21 20 20 19 19 19 18
3 2 1 1 1 3 5 6 7 8 9 9 9 8 9 10 11 12 12 12 5 4 6 4 5 5 24 22 22 22 22 22 22 21 20 20 21 22 23 23 23 21 21
5 4 3 1 1 3 5 7 7 8 9 9 9 9 13 15 14 12 13 13 13 11 4 13 19 25 24 22 21 23 24 23 24 24 22 22 22 23 23 24 26 25 24
4 3 2 2 4 5 8 10 10 10 11 11 10 12 14 15 16 16 14 14 13 13 8 25 24 25 24 25 22 20 23 22 23 23 20 21 22 23 23 24 25 27 28
5 3 2 4 6 8 10 11 13 13 13 13 14 15 16 15 16 16 15 15 15 15 16 14 22 25 24 25 27 26 23 22 23 24 21 21 21 22 24 25 25 26 28
5 3 5 7 8 11 14 15 14 13 14 16 16 16 17 16 17 17 17 18 18 16 16 17 17 20 25 26 28 27 25 24 23 22 23 24 23 23 24 26 26 26 27
6 6 7 10 12 16 17 16 15 15 17 17 17 17 17 16 17 17 18 19 18 16 20 21 20 20 19 24 26 25 24 23 26 27 28 29 27 26 26 26 26 27 28
7 7 10 15 17 19 18 17 18 19 18 19 19 19 19 18 17 16 16 19 19 21 23 20 17 17 18 17 17 21 24 28 27 27 31 32 33 30 29 29 29 27 26
10 11 16 20 23 21 21 20 19 19 19 20 22 22 22 21 20 18 16 18 17 19 20 19 18 19 22 22 21 22 23 19 12 24 25 29 27 30 31 32 31 28 27
13 19 23 24 23 23 24 23 21 20 20 21 22 22 23 23 22 22 23 22 19 20 20 23 24 25 26 27 26 26 25 25 25 26 25 29 28 28 32 33 30 29 28
19 23 24 25 25 26 26 24 23 21 21 22 23 22 22 23 23 23 23 23 24 26 24 26 28 31 31 30 28 29 30 28 24 25 18 18 26 31 31 34 33 30 28
24 25 26 27 28 29 27 26 24 23 23 24 23 22 22 22 22 20 19 24 27 27 30 32 28 29 30 31 32 33 24 19 16 26 22 21 24 25 26 34 35 31 26
25 25 28 29 29 31 28 27 25 24 24 24 23 24 23 21 19 18 19 22 23 26 31 33 31 29 28 28 28 29 26 18 18 19 13 9 11 11 9 19 20 16 19
Wind_Direction
28 23 20 17 14 12 9 8 7 3 2 1 358 353 345 339 339 311 320 347 347 343 11 332 311 321 324 345 356 359 328 328 334 330 346 333 332 315 298 283 281 281 270
11 10 10 10 10 9 5 1 1 358 358 353 352 355 332 317 310 291 296 331 343 345 13 23 14 3 351 340 330 326 324 325 337 327 296 329 351 11 32 52 9 304 299
348 351 354 358 2 1 356 353 355 355 352 349 346 342 333 300 292 281 262 288 326 331 335 342 0 356 352 348 338 328 323 324 329 331 305 281 290 296 341 355 7 0 11
328 335 340 341 345 348 349 349 349 349 350 349 345 341 334 300 271 274 264 276 315 329 331 328 327 325 319 329 327 322 319 320 321 324 320 303 281 268 275 278 313 333 357
309 316 326 332 335 339 340 343 347 347 346 344 343 344 330 295 245 258 262 278 292 320 334 339 338 338 334 323 322 329 324 321 320 317 314 308 297 283 272 281 284 307 318
298 315 316 322 324 326 329 334 340 343 345 346 341 345 1 5 191 236 270 273 284 298 314 324 334 341 338 331 323 316 318 307 314 313 311 308 305 294 279 274 275 287 273
290 302 303 310 314 318 325 332 336 341 350 357 350 352 16 48 89 340 288 281 278 285 297 305 314 321 325 325 320 318 318 313 311 307 309 306 305 293 281 271 276 281 294
277 286 298 308 312 318 323 330 338 344 344 4 358 348 356 340 270 25 21 3 299 325 318 307 314 324 319 312 310 309 316 314 308 304 299 301 298 294 282 273 269 276 288
272 284 303 313 318 324 332 338 340 345 344 350 1 3 2 314 329 325 356 81 358 355 355 333 321 320 323 316 307 301 304 309 311 306 296 292 291 289 284 274 269 269 277
267 267 278 299 317 332 341 348 345 343 341 346 358 29 326 289 277 322 323 310 315 321 319 317 318 314 318 313 309 310 304 302 304 304 300 290 286 284 283 279 274 269 268
262 263 262 293 316 331 339 341 340 336 336 333 336 328 326 312 279 245 287 306 311 318 320 321 321 322 321 333 338 340 332 310 302 297 299 291 282 281 281 279 278 275 282
236 214 239 280 315 330 339 341 339 336 332 324 319 311 295 280 277 279 276 302 298 311 315 316 320 325 319 321 328 341 341 333 323 301 288 287 283 283 281 277 278 278 276
181 182 272 318 338 344 345 347 347 345 339 333 326 320 310 302 298 293 287 285 280 310 306 316 316 323 325 349 326 323 323 321 316 312 292 277 278 282 284 280 278 278 278
186 167 10 7 4 4 359 355 355 349 340 335 332 328 327 325 321 314 298 297 305 269 300 278 299 289 312 317 313 314 315 316 313 310 300 284 277 281 282 281 279 278 277
172 174 172 71 40 10 360 355 351 346 342 336 330 327 328 325 318 314 307 301 269 301 305 308 298 292 311 317 316 312 312 310 307 306 302 295 287 280 277 275 275 276 276
198 200 187 175 8 357 349 342 338 333 328 328 321 318 324 324 323 319 315 305 291 263 270 291 300 305 316 319 318 313 309 308 305 298 297 295 290 284 280 275 271 271 271
209 202 212 321 338 340 337 331 326 321 316 315 313 309 316 319 319 319 315 308 300 291 261 290 300 311 315 319 321 318 318 318 321 320 305 300 294 287 283 280 276 272 268
207 225 284 316 323 327 326 320 314 308 304 305 308 304 307 315 314 318 317 310 303 299 281 278 299 307 308 314 315 314 315 316 312 313 310 304 298 291 286 284 281 275 271
227 264 296 308 314 316 313 306 297 301 302 303 301 300 305 310 312 315 313 308 308 301 293 279 285 299 304 309 312 311 310 309 310 309 303 300 297 292 286 284 281 279 277
248 275 293 302 305 304 299 298 304 298 296 293 294 291 294 300 305 309 309 305 304 292 300 291 285 284 292 298 296 295 298 303 302 304 300 297 293 289 288 287 282 279 278
263 283 298 304 303 296 296 302 299 291 290 289 291 291 295 299 303 301 295 297 296 296 296 288 287 293 297 295 287 296 295 299 297 299 297 295 298 299 299 295 292 289 285
264 286 298 299 297 295 303 304 295 290 289 289 291 294 296 298 299 304 297 293 284 292 292 290 289 290 293 294 292 287 282 284 293 297 291 288 291 289 292 291 292 290 281
286 294 298 298 297 300 304 303 296 285 284 285 287 290 294 295 298 298 301 297 290 288 284 293 288 285 286 290 292 287 279 270 268 277 277 279 278 278 282 279 278 278 274
302 302 301 304 304 304 307 303 296 286 282 281 282 285 286 289 293 298 297 294 289 289 289 297 289 288 288 285 280 277 278 272 274 284 278 273 278 274 275 282 280 282 276
306 304 305 305 305 305 304 300 295 286 282 280 280 284 287 289 293 294 288 285 288 284 296 297 289 287 291 295 293 290 279 275 285 293 290 270 272 274 279 282 286 285 280
307 307 306 306 306 303 303 301 294 287 282 280 283 285 287 287 287 287 289 292 290 291 298 299 297 292 295 296 291 285 280 280 285 287 289 264 268 260 288 277 270 277 281